Showing default

GLOBAL-5, 55983

Orbit data source: Space-Track

GLOBAL-5, 55983 is a payload satellite owned by BlackSky Global (US) in LEO that was launched on Fri, 24 Mar 2023 UTC via an ELECTRON launch vehicle from the Rocket Lab Launch Complex (RLLC). Payload-class satellites include a variety of spacecraft equipped with specific instruments for various scientific and technological missions. These include communications satellites like Starlink; space stations such as the ISS; scientific satellites like the Hubble; Earth observation satellites from companies like Planet Labs, Umbra, and HawkEye 360; GPS; miniature CubeSats for education and research; and military/defense satellites.

Loading next visibility...
Identifier
55983, 2023-041C
Orbit
LEO
Country
Flag of USUS
Related business
Manufacturer
LeoStella
Mission
Operational Commercial Imaging
Bus & Motor
BSKY, Unknown motor
Mass
55 kg wet, ~50 kg dry
Launch date (UTC)
2023-03-24 (3 years ago)
Launch vehicle
ELECTRON
Launch site
Rocket Lab Launch Complex (RLLC)
Object type
Payload
Rocket body
Debris
Shape & HBR
Box, 1.0 m
Radar Cross Section
0.625 m², Medium (>0.1 m² and < 1m²)

Expand to show TLE details & history
Last TLE update: 2 days ago

TLE from 2 days ago
0 GLOBAL-5
1 55983U 23041C   26171.37832574  .00009796  00000-0  26196-3 0  9994
2 55983  41.9994 182.8060 0007439  18.0406 342.0696 15.38089576182424
Epoch: 2026-06-20T09:04Z
TLE epoch observation values (Epoch: 2026-06-20T09:04:47.343Z)
Latitude
-0.00005°
Longitude
138.01487°
Altitude
446.589 km
Speed
7.649 km/s
True Right ascension
12h 11m 13s
True Declination
0° 00' 00"
Sunlit
Object was in daylight at epoch
Visualization orbit readout
Latitude
Unknown
Longitude
Unknown
Altitude
Unknown
Speed
Unknown
Apparent Right ascension
Unknown
Apparent Declination
Unknown
Sunlit
N/A
Visualization observer readout
Local Sidereal Time
21:33:24
Azimuth
Unknown
Elevation
Unknown
Doppler factor
Unknown
Orbital elements
Apogee altitude
458.964 km
Perigee altitude
448.799 km
Semi-major axis
6,832.018 km
Eccentricity
0.00074
Inclination
41.9994°
RAAN
182.806°
Arg. of periapsis
18.0406°
True anomaly
342.04333°
Mean anomaly
342.0696°
Eccentric anomaly
342.05647°
Mean motion
3.84344 °/min
Orbital period
93.67 mins
BSTAR
0.00026196
Loading maneuver chart data...
Computing Atmospheric mass density...
Loading historical data...
Loading historical data...
Loading historical data...
Loading historical data...
Loading historical data...
Loading historical data...
Loading historical data...

Documentation

Showing up to 5 results
|